Regional Weather Roundup
Issued by NWS Wakefield, VA

Home | Current Version | Previous Version | Graphics & Text | Print | Product List | Glossary On
Versions: 1 2 3 4 5 6 7 8 9 10 11 12 13 14 15 16 17 18 19 20 21 22 23 24 25 26 27 28 29 30 31 32 33 34 35 36 37 38 39 40 41 42 43 44 45 46 47 48 49 50
000
ASUS41 KAKQ 252215
RWRAKQ

REGIONAL WEATHER ROUNDUP
NATIONAL WEATHER SERVICE WAKEFIELD VA
600 PM EDT WED MAY 25 2016

Note: "fair" indicates few or no clouds below 12,000 feet with no
significant weather and/or obstructions to visibility. * = Denotes
station may not report precipitation (e.g., rain,snow,etc.),
thunder or fog.

VAZ042-051-052>054-056-252300-
NORTHERN VIRGINIA

CITY           SKY/WX    TMP DP  RH WIND       PRES   REMARKS
WASH NATIONAL  PTSUNNY   85  53  33 VRB6      30.10F
DULLES         PTSUNNY   83  52  34 SW6       30.11F
FORT BELVOIR   FAIR      84  53  34 S3        30.10F
QUANTICO       FAIR      81  59  47 S5        30.11F
FREDERICKSBRG* FAIR      86  54  32 SW6       30.10F
STAFFORD*      FAIR      83  51  32 SW5       30.15F
WARRENTON      FAIR      85  44  23 CALM      30.11F
CULPEPER*      FAIR      85  55  34 SW5       30.12S
MANASSAS*      SUNNY     84  52  32 S3        30.11F
LEESBURG*      FAIR      86  55  35 SW5       30.11F
WINCHESTER     FAIR      84  52  32 SE6       30.11F
FRONT ROYAL*   FAIR      82  54  36 S3        30.10F
LURAY*         FAIR      84  54  34 S5        30.12F
$$

VAZ048-049-060>072-079>083-252300-
CENTRAL AND SOUTH CENTRAL VIRGINIA

CITY           SKY/WX    TMP DP  RH WIND       PRES   REMARKS
RICHMOND       PTSUNNY   85  54  34 W12       30.12F
CHESTERFIELD*  FAIR      84  54  34 W7        30.14F
PETERSBURG*    FAIR      87  53  30 W5        30.14S
HANOVER        FAIR      85  52  32 SW8       30.13F
TAPPAHANNOCK*  FAIR      87  51  29 SW6       30.12F
QUINTON*       FAIR      85  55  35 W5        30.12F
CHARLOTTSVILLE FAIR      84  56  38 S8        30.11F
GORDONSVILLE*  FAIR      84  56  38 S5        30.11F
ORANGE*        FAIR      84  52  32 SW6       30.13F
LOUISA*        FAIR      88  55  33 CALM      30.12S
BUMPASS*       FAIR      84  54  36 SW3       30.12F
FARMVILLE*     NOT AVBL
CREWE*         FAIR      85  55  34 CALM      30.15S
FORT PICKETT*  NOT AVBL
CHASE CITY*    FAIR      84  53  34 W6        30.15S
CLARKSVILLE*   FAIR      84  57  39 SW3       30.15S
SOUTH HILL*    FAIR      83  58  42 W6        30.21S
LAWRENCEVILLE* FAIR      84  57  39 W3        30.15S
EMPORIA*       FAIR      84  57  39 SW7       30.15F
$$

VAZ088>098-252300-
SOUTHEAST VIRGINIA

CITY           SKY/WX    TMP DP  RH WIND       PRES   REMARKS
NORFOLK        FAIR      84  59  42 E8        30.13S
VIRGINIA BEACH FAIR      84  60  44 E8        30.13S
NORFOLK NAVAL  FAIR      86  59  39 NE6       30.14S
WEST POINT*    FAIR      85  52  32 W6        30.13F
SALUDA*        FAIR      82  62  51 NE3       30.12F
NEWPORT NEWS   FAIR      86  57  37 W8        30.13S
LANGLEY AFB    FAIR      84  60  44 E9        30.13S
FORT EUSTIS    FAIR      85  59  41 NW2       30.11F
WILLIAMSBURG*  FAIR      90  55  31 W7        30.14S
HR EXEC AP*    FAIR      88  55  33 NW7       30.14S
FRANKLIN*      FAIR      85  54  33 NW6       30.14S
US460-WAKEFLD  FAIR      87  53  31 SW7       30.13S
$$

VAZ020-022-025-037-045-252300-
WEST CENTRAL AND SOUTHWEST VIRGINIA

CITY           SKY/WX    TMP DP  RH WIND       PRES   REMARKS
STAUNTON*      FAIR      82  53  36 S5        30.15F
WAYNESBORO*    FAIR      82  45  27 CALM      30.15F
HOT SPRINGS VA PTSUNNY   72  48  41 SW10      30.26S
LYNCHBURG      FAIR      82  53  36 SW7       30.16F
DANVILLE       FAIR      84  52  33 CALM      30.15F
SOUTH BOSTON*  FAIR      85  51  30 W6        30.15S
MARTINSVILLE   FAIR      82  54  36 CALM      30.18S
ROANOKE        FAIR      83  54  36 VRB6      30.16F
BLACKSBURG     PTSUNNY   80  56  43 W5        30.24S
DUBLIN*        CLOUDY    79  58  48 CALM      30.22F
MARION*        FAIR      78  56  45 W8        30.25F
HILLSVILLE*    CLOUDY    74  59  57 S3        30.24S
RICHLANDS*     FAIR      77  53  41 SW5       30.24S
WISE*          PTSUNNY   75  50  41 SW8       30.25S
ABINGDON*      PTSUNNY   79  56  44 NW5       30.21F
$$

MDZ021>025-VAZ099-100-252300-
SOUTHERN MARYLAND AND THE DELMARVA PENINSULA

CITY           SKY/WX    TMP DP  RH WIND       PRES   REMARKS
PATUXENT RIVER MOSUNNY   80  54  40 SE6       30.11F
BAY BRIDGE APT MOSUNNY   84  52  32 S7        30.10F
LEONARDTOWN    SUNNY     82  50  32 SW3       30.13F
DOVER          MOSUNNY   85  58  39 SW12      30.09F
GEORGETOWN     PTSUNNY   84  49  29 VRB6      30.12S
EASTON         SUNNY     84  59  42 SW8       30.14F
CAMBRIDGE      SUNNY     82  52  34 W6        30.11F
SALISBURY      MOSUNNY   83  53  35 W8        30.12S
OCEAN CITY     PTSUNNY   83  50  31 W10G17    30.12R
WALLOPS ISLAND FAIR      83  55  38 S6        30.14S
ACCOMACK*      FAIR      84  50  30 CALM      30.13F
$$

NCZ012>017-030>032-252300-
NORTH CENTRAL AND EASTERN NORTH CAROLINA

CITY           SKY/WX    TMP DP  RH WIND       PRES   REMARKS
ROANOKE RAPIDS FAIR      84  55  37 SW10      30.14F
RALEIGH        MOSUNNY   85  57  38 SW8       30.16S
ELIZABETH CITY SUNNY     85  56  37 S10       30.14S
AHOSKIE*       NOT AVBL
EDENTON*       SUNNY     86  55  34 SW6       30.15F
CURRITUCK*     MOSUNNY   87  56  35 SW6       30.14F
KILL DEVIL HLS SUNNY     85  60  42 S5        30.15S
MANTEO         MOSUNNY   77  65  67 S12       30.16F
CAPE HATTERAS  SUNNY     75  68  78 SW10      30.19F
TARBORO*       FAIR      87  56  34 SW6       30.15F
GOLDSBORO      SUNNY     88  53  29 SW6       30.14F
WASHINGTON     SUNNY     86  56  36 SW5       30.15F
GREENVILLE     MOSUNNY   86  55  35 SW8       30.16S
NEW BERN       SUNNY     83  59  44 S8        30.18R
WILMINGTON     SUNNY     82  59  45 S13       30.18S
$$

VAZ048-252300-
ELSEWHERE

CITY           SKY/WX    TMP DP  RH WIND       PRES   REMARKS
HARRISBURG PA  PTSUNNY   80  55  42 SW9       30.07F
BALTIMORE      PTSUNNY   84  51  31 W8        30.09F
ANNAPOLIS      MOSUNNY   78  60  53 VRB5      30.09F
ANDREWS AFB    FAIR      83  52  33 SW10      30.10F
PHILADELPHIA   PTSUNNY   87  46  24 SW13      30.07F
HENDERSON NC   SUNNY     82  54  38 SW8       30.16S
GREENSBORO     PTSUNNY   84  51  31 SW9       30.16F
ROCKY MOUNT    MOSUNNY   86  55  34 SW9       30.15S
$$

VAZ100-252300-
MARINE

STATION/POSITION TIME  TEMP    WIND        PRES    WAVE   SWELL
                       AIR SEA DIR/SP/G            HT/PER HT/PER
                 (UTC) (F)     (DEG/KT/KT) (MB)    (FT/S) (FT/S)
BRANDYWINE LGT   2100   76     230/  6/  7 1019.6F
CAPE MAY NJ      2100   78 66  170/  5/  6 1019.5F
LEWES DE         2100   80 61  310/ 11/ 12 1019.6S
15NM E FENWICK I 2150   64 58              1019.9R   2/ 8
OCEAN-CITY-INLET 2100   81 64  270/ 11/ 13 1020.1R
WACHAPREAGUE VA  2100   81 77  180/  8/ 10 1020.0R
THOMAS POINT MD  2200   75 63  170/ 12/ 13 1020.3F
GOOSES REEF MD   2100   77 68  250/  6/  6 1021.0S   0
COVE POINT MD    2100          180/  8/ 10 1020.7R
SOLOMONS ISLAND  2100   81 65  240/  8/ 11   N/A
BISHOPS HEAD MD  2100   74 75  150/  6/  8 1020.5S
PINEY POINT MD   2100          160/  9/ 10   N/A
POTOMAC MD       2100   73 69  150/  8/  8 1019.3F   1
CAMBRIDGE MD     2100   83 65  250/  8/ 15 1019.3R
LEWISETTA VA     2100   74 69  120/ 10/ 11 1019.7R
RAPPAHANNOCK LGT 2100          170/  3/  3 1021.1S
STINGRAY PT      2100   73 68  120/  4/  4 1020.8S   0
YORK RVR RNG VA  2100   75     140/ 12/ 12 1019.8F
YORKTOWN VA      2100   79 69  100/  7/  9 1020.1F
JAMESTOWN VA     2100   84 73   CALM  /  2   N/A     0
DOMINION TERM VA 2100   84     180/  2/  3 1020.3F
KIPTOPEKE VA     2100      66  180/  9/ 10   N/A
CHES BAY BRIDGE  2100   73 65   80/ 10/ 12 1020.5F
CAPE HENRY VA    2100   76     120/  7/ 10   N/A
CHESAPEAKE LGHT  2100   71     150/ 14/ 15 1021.3F
WILLOUBY STN VA  2100   76     100/  8/  9 1021.4F
CAPE HENRY BUOY  2112      65                N/A     2/ 9
1ST LANDING BUOY 2100   71 67  120/  8/ 10 1020.6F   1/ 5
CAPE CHARLES BUO 2156      68                N/A     2/ 9   2/ 9
OFFSHORE WE BUOY 2151      66                N/A     2/ 8   2/ 8
64NM E OF VA BCH 2150   65 61  180/  6/  6 1021.1F   3/ 9   2/ 9
DUCK PIER NC     2100   83 61  230/  5/  7 1020.4F
44100 DUCK FRF   2154      66                N/A     2/ 8
44056 DUCK FRF   2111      64                N/A     2/ 9
OREGON INLET NC  2100   75 72  190/ 14/ 17 1021.5F
HATTERAS NC      2100   74 70  200/  7/ 10 1022.1F
DIAMOND SHLS NC  2150   75 74  230/  8/ 10 1022.5R   2/ 8   2/ 8
CAPE LOOKOUT NC1F1C2F2C3F3C4F4C5F5C6F6C7F7C8M1C9!


USA.gov is the U.S. government's official web portal to all federal, state and local government web resources and services.